Weather in Salairka

Russia / Tyumen Oblast     57°22′44″N   65°00′37″E
temp.,
°C
wind,
m/s
gust,
m/s
humid.,
%
clouds,
%
prec.,
mm/h
press.,
hPa
HPBL,
m
13 may, thu
thu1323:00+15wsw225698 0.0 102513
02:00+14w31058100 0.0 1024216
05:00+13w38685 0.0 1024161
08:00+19wnw48525 0.0 1024471
11:00+24nw58395 0.0 10231855
14:00+27nnw583023 0.0 10222840
17:00+26n57338 0.0 10232064
20:00+21ne22525 0.0 102415
14 may, fri
fri1423:00+17ene11615 0.0 102511
02:00+15se22685 0.0 102623
05:00+14s22735 0.0 102627
08:00+21ssw475247 0.0 1025422
11:00+27wsw46320 0.0 10242155
14:00+29w572357 0.0 10222886
17:00+29wnw482436 0.0 10213194
20:00+24w24365 0.0 102054
15 may, sat
sat1523:00+20wsw23465 0.0 102043
02:00+18w3115034 0.0 1020204
05:00+17wsw3106175 0.0 1020214
08:00+23w4946100 0.0 1019520
11:00+27w6103650 0.0 10191678
14:00+30w6112556 0.0 10173487
17:00+30wnw6102573 0.0 10163559
20:00+21nne595998 0.3 1018381
16 may, sun
sun1623:00+17n357722 0.8 101884
02:00+16sw24780 0.4 101867
05:00+16w27776 0.4 1018113
08:00+23w36558 0.0 1018382
11:00+29w58317 0.0 10171586
14:00+30w6920100 0.0 10161933
17:00+31w592033 0.0 10162725
20:00+26w373017 0.0 1015142
17 may, mon
mon1723:00+21sw23415 0.0 101541
02:00+19wsw24463 0.0 101552
05:00+18wsw39545 0.0 1015162
08:00+25wsw4103859 0.0 1014559
11:00+30wsw7112495 0.0 10123289
14:00+31w811185 0.0 10113798
17:00+30wnw61223100 0.0 10093982
20:00+26w6123175 0.0 10091082